Regional Weather Roundup
Issued by NWS

Home | Current Version | Previous Version | Text Only | Print | Product List | Glossary Off
Versions: 1 2 3 4 5 6 7 8 9 10 11 12 13 14 15 16 17 18 19 20 21 22 23 24 25 26 27 28 29 30 31 32 33 34 35 36 37 38 39 40 41 42 43 44 45 46 47 48 49 50

375
ASUS43 KOAX 140602
RWRNE

WEATHER ROUNDUP FOR NEBRASKA
NATIONAL WEATHER SERVICE OMAHA NE
1200 AM CST SUN FEB 14 2016

NOTES: SATELLITE DATA IS BEING USED TO AUGMENT CLOUD COVER ABOVE
       12000 FEET.
       "FAIR" INDICATES FEW OR NO CLOUDS BELOW 12,000 FEET WITH NO
       SIGNIFICANT WEATHER AND/OR OBSTRUCTIONS TO VISIBILITY.

  * THESE STATIONS DO NOT REPORT WEATHER SUCH AS RAIN...SNOW OR FOG.

NEZ001>004-019>022-054>056-140700-
NEBRASKA PANHANDLE

CITY           SKY/WX    TMP DP  RH WIND       PRES   REMARKS
SCOTTSBLUFF    CLEAR     31  28  89 NW7       30.04R WCI  24
6HR MIN TEMP:  31; 6HR MAX TEMP:  58; 6HR PCP:  0.01;

ALLIANCE       CLEAR     33  27  78 NW17      29.98R WCI  22
6HR MIN TEMP:  32; 6HR MAX TEMP:  44;

CHADRON        CLEAR     34  29  82 W16       29.98R WCI  24
6HR MIN TEMP:  33; 6HR MAX TEMP:  58; 6HR PCP: TRACE;

SIDNEY         CLEAR     33  27  78 W10       30.04R WCI  25
6HR MIN TEMP:  32; 6HR MAX TEMP:  45;

$$

NEZ057>060-069>072-079>082-140700-
SOUTHWEST NEBRASKA

CITY           SKY/WX    TMP DP  RH WIND       PRES   REMARKS
NORTH PLATTE   MOCLDY    29  26  89 W3        29.97S
6HR MIN TEMP:  26; 6HR MAX TEMP:  30;

IMPERIAL       PTCLDY    34  29  82 NW10G20   30.01R WCI  26
6HR MIN TEMP:  26; 6HR MAX TEMP:  34;

MCCOOK         CLEAR     24  20  84 SW6       30.02F WCI  17
6HR MIN TEMP:  24; 6HR MAX TEMP:  30;

$$

NEZ005>010-023>029-035>040-094-140700-
NORTH CENTRAL NEBRASKA

CITY           SKY/WX    TMP DP  RH WIND       PRES   REMARKS
VALENTINE      CLOUDY    34  32  92 W15       29.85R WCI  24
6HR MIN TEMP:  27; 6HR MAX TEMP:  37; 6HR PCP:  0.01;

AINSWORTH      LGT RAIN  35  33  91 W20G25    29.82R WCI  24
BROKEN BOW     CLOUDY    25  17  72 S13       29.92F WCI  14
6HR MIN TEMP:  20; 6HR MAX TEMP:  25;

ORD            CLOUDY    20  10  65 S21       29.95F WCI   4
6HR MIN TEMP:  18; 6HR MAX TEMP:  21;

$$

NEZ041-046>049-061>064-073>077-083>087-140700-
SOUTH CENTRAL NEBRASKA

CITY           SKY/WX    TMP DP  RH WIND       PRES   REMARKS
GRAND ISLAND   CLOUDY    17   8  67 S10       30.04R WCI   5
6HR MIN TEMP:  17; 6HR MAX TEMP:  20;

HASTINGS       CLOUDY    18   7  62 S7        30.02F WCI   9
6HR MIN TEMP:  18; 6HR MAX TEMP:  22;

KEARNEY *      CLOUDY    18  10  73 SW9       30.02S WCI   6
$$

NEZ011>018-030>034-042>045-140700-
NORTHEAST NEBRASKA

CITY           SKY/WX    TMP DP  RH WIND       PRES   REMARKS
NORFOLK        CLOUDY    17   7  64 SE17      30.01F WCI   1
6HR MIN TEMP:  16; 6HR MAX TEMP:  18;

BLAIR          CLOUDY    19   5  56 SE15      30.11F WCI   4
COLUMBUS *     CLOUDY    16   0  48 SE10      30.05F WCI   3
TEKAMAH        CLOUDY    18   6  59 SE17      30.15S WCI   3
6HR MIN TEMP:  17; 6HR MAX TEMP:  18;

$$

NEZ050>053-065>068-078-088>093-140700-
SOUTHEAST NEBRASKA

CITY           SKY/WX    TMP DP  RH WIND       PRES   REMARKS
LINCOLN        CLOUDY    19   6  57 SE13      30.12F WCI   6
6HR MIN TEMP:  19; 6HR MAX TEMP:  20;

OMAHA EPPLEY   CLOUDY    20   4  50 SE20      30.15F WCI   4
6HR MIN TEMP:  19; 6HR MAX TEMP:  20;

BEATRICE       CLOUDY    19   6  57 SE9       30.10F WCI   8
FALLS CITY     CLOUDY    20   3  48 SE9       30.17F WCI   9
6HR MIN TEMP:  20; 6HR MAX TEMP:  21;

NEBRASKA CITY  CLOUDY    19   1  43 SE13      30.15F WCI   7
$$

NEZ044-045-051>053-067-140700-
OMAHA AREA

CITY           SKY/WX    TMP DP  RH WIND       PRES   REMARKS
OMAHA EPPLEY   CLOUDY    20   4  50 SE20      30.15F WCI   4
6HR MIN TEMP:  19; 6HR MAX TEMP:  20;

BLAIR          CLOUDY    19   5  56 SE15      30.11F WCI   4
OFFUTT AFB     CLOUDY    20   3  48 SE17      30.14F WCI   5
WAHOO          FAIR      18   7  62 SE14      30.11S WCI   4
$$




USA.gov is the U.S. government's official web portal to all federal, state and local government web resources and services.